When you browse on this site, cookies collect data to enhance your experience and personalize the content and advertising you see.
Visit our Privacy Policy to learn more. By continuing to use the site, you agree to this use of cookies and data.
  • En España
  • Lista de países
  • Para 7 días
  • Temperatura del agua
  • Mapa Satelital
  • El tiempo en el mapa
  • Informadores
  • user-avatar
    Iniciar sesión

    Tiempo cada hora Rovinj

    Hoy, 22 Abril, Lunes

    Tiempo Temperatura Precipitaciones Viento Presión Humedad
    00:00 +12°C° 0 mm 3 mps 762 mmHg 67%
    01:00 +12°C° 0 mm 3 mps 762 mmHg 70%
    02:00 +11°C° 0 mm 4 mps 762 mmHg 74%
    03:00 +11°C° 0 mm 4 mps 762 mmHg 78%
    04:00 +11°C° 0 mm 4 mps 761 mmHg 83%
    05:00 +12°C° 0 mm 4 mps 761 mmHg 80%
    06:00 +13°C° 0 mm 5 mps 760 mmHg 77%
    07:00 +14°C° 0 mm 5 mps 760 mmHg 74%
    08:00 +15°C° 0 mm 5 mps 760 mmHg 70%
    09:00 +16°C° 0 mm 5 mps 759 mmHg 66%
    10:00 +17°C° 0 mm 6 mps 759 mmHg 62%
    11:00 +19°C° 0 mm 6 mps 758 mmHg 59%
    12:00 +19°C° 0 mm 6 mps 758 mmHg 57%
    13:00 +20°C° 0 mm 6 mps 757 mmHg 55%
    14:00 +19°C° 0 mm 6 mps 757 mmHg 57%
    15:00 +19°C° 0 mm 6 mps 757 mmHg 58%
    16:00 +19°C° 0 mm 6 mps 756 mmHg 60%
    17:00 +16°C° 0 mm 6 mps 756 mmHg 66%
    18:00 +15°C° 0 mm 5 mps 756 mmHg 72%
    19:00 +14°C° 0 mm 4 mps 755 mmHg 78%
    20:00 +14°C° 0.1 mm 5 mps 755 mmHg 77%
    21:00 +14°C° 0.1 mm 5 mps 755 mmHg 76%
    22:00 +14°C° 0.1 mm 6 mps 755 mmHg 75%
    23:00 +14°C° 1.9 mm 6 mps 755 mmHg 81%

    Mañana, 23 Abril, Martes

    Tiempo Temperatura Precipitaciones Viento Presión Humedad
    00:00 +12°C° 1.9 mm 7 mps 755 mmHg 86%
    01:00 +12°C° 1.9 mm 7 mps 754 mmHg 92%
    02:00 +12°C° 3.4 mm 7 mps 754 mmHg 93%
    03:00 +12°C° 3.4 mm 8 mps 753 mmHg 93%
    04:00 +12°C° 3.4 mm 8 mps 753 mmHg 93%
    05:00 +12°C° 0.6 mm 8 mps 753 mmHg 93%
    06:00 +12°C° 0.6 mm 9 mps 753 mmHg 92%
    07:00 +12°C° 0.6 mm 9 mps 752 mmHg 92%
    08:00 +13°C° 0.1 mm 9 mps 753 mmHg 91%
    09:00 +13°C° 0.1 mm 10 mps 753 mmHg 89%
    10:00 +14°C° 0.1 mm 10 mps 753 mmHg 88%
    11:00 +14°C° 0 mm 10 mps 753 mmHg 85%
    12:00 +16°C° 0 mm 10 mps 753 mmHg 82%
    13:00 +17°C° 0 mm 10 mps 753 mmHg 79%
    14:00 +16°C° 0.6 mm 9 mps 753 mmHg 84%
    15:00 +15°C° 0.6 mm 7 mps 753 mmHg 89%
    16:00 +15°C° 0.6 mm 6 mps 753 mmHg 94%
    17:00 +15°C° 0.7 mm 5 mps 753 mmHg 95%
    18:00 +15°C° 0.7 mm 4 mps 753 mmHg 96%
    19:00 +14°C° 0.7 mm 4 mps 753 mmHg 97%
    20:00 +14°C° 0.7 mm 3 mps 754 mmHg 97%
    21:00 +14°C° 0.7 mm 3 mps 755 mmHg 96%
    22:00 +14°C° 0.7 mm 3 mps 755 mmHg 96%
    23:00 +14°C° 0.5 mm 4 mps 756 mmHg 96%

    Pasado mañana, 24 Abril, Miércoles

    Tiempo Temperatura Precipitaciones Viento Presión Humedad
    00:00 +14°C° 0.5 mm 4 mps 756 mmHg 95%
    01:00 +14°C° 0.5 mm 4 mps 756 mmHg 95%
    02:00 +14°C° 0.2 mm 4 mps 757 mmHg 95%
    03:00 +14°C° 0.2 mm 5 mps 757 mmHg 96%
    04:00 +14°C° 0.2 mm 5 mps 757 mmHg 96%
    05:00 +14°C° 0.1 mm 4 mps 758 mmHg 95%
    06:00 +14°C° 0.1 mm 4 mps 758 mmHg 94%
    07:00 +14°C° 0.1 mm 4 mps 759 mmHg 94%
    08:00 +15°C° 0.2 mm 4 mps 759 mmHg 92%
    09:00 +16°C° 0.2 mm 5 mps 760 mmHg 90%
    10:00 +16°C° 0.2 mm 5 mps 760 mmHg 88%
    11:00 +17°C° 0.2 mm 5 mps 761 mmHg 87%
    12:00 +17°C° 0.2 mm 6 mps 761 mmHg 86%
    13:00 +19°C° 0.2 mm 6 mps 761 mmHg 85%
    14:00 +19°C° 0 mm 6 mps 761 mmHg 86%
    15:00 +17°C° 0 mm 6 mps 761 mmHg 87%
    16:00 +17°C° 0 mm 6 mps 761 mmHg 88%
    17:00 +16°C° 0 mm 6 mps 761 mmHg 91%
    18:00 +15°C° 0 mm 5 mps 761 mmHg 93%
    19:00 +15°C° 0 mm 5 mps 761 mmHg 95%
    20:00 +15°C° 0 mm 5 mps 762 mmHg 95%
    21:00 +14°C° 0 mm 5 mps 762 mmHg 96%
    22:00 +14°C° 0 mm 5 mps 762 mmHg 96%
    23:00 +14°C° 0 mm 5 mps 762 mmHg 96%

    25 Abril, Jueves

    Tiempo Temperatura Precipitaciones Viento Presión Humedad
    00:00 +14°C° 0 mm 5 mps 762 mmHg 95%
    01:00 +14°C° 0 mm 5 mps 762 mmHg 95%
    02:00 +13°C° 0 mm 5 mps 762 mmHg 95%
    03:00 +13°C° 0 mm 4 mps 762 mmHg 95%
    04:00 +13°C° 0 mm 4 mps 762 mmHg 94%
    05:00 +14°C° 0 mm 4 mps 763 mmHg 93%
    06:00 +14°C° 0 mm 5 mps 763 mmHg 91%
    07:00 +15°C° 0 mm 5 mps 763 mmHg 89%
    08:00 +16°C° 0 mm 6 mps 763 mmHg 86%
    09:00 +17°C° 0 mm 6 mps 763 mmHg 82%
    10:00 +19°C° 0 mm 6 mps 763 mmHg 79%
    11:00 +20°C° 0 mm 6 mps 763 mmHg 76%
    12:00 +20°C° 0 mm 6 mps 763 mmHg 73%
    13:00 +21°C° 0 mm 6 mps 763 mmHg 70%
    14:00 +21°C° 0 mm 6 mps 763 mmHg 71%
    15:00 +21°C° 0 mm 5 mps 762 mmHg 72%
    16:00 +20°C° 0 mm 5 mps 762 mmHg 73%
    17:00 +19°C° 0 mm 5 mps 762 mmHg 78%
    18:00 +17°C° 0 mm 5 mps 762 mmHg 83%
    19:00 +15°C° 0 mm 4 mps 762 mmHg 89%
    20:00 +15°C° 0 mm 4 mps 762 mmHg 89%
    21:00 +14°C° 0 mm 4 mps 763 mmHg 89%
    22:00 +14°C° 0 mm 4 mps 763 mmHg 90%
    23:00 +14°C° 0 mm 4 mps 763 mmHg 89%

    26 Abril, Viernes

    Tiempo Temperatura Precipitaciones Viento Presión Humedad
    00:00 +14°C° 0 mm 4 mps 762 mmHg 88%
    01:00 +14°C° 0 mm 4 mps 762 mmHg 87%
    02:00 +14°C° 0 mm 4 mps 762 mmHg 87%
    03:00 +14°C° 0 mm 5 mps 761 mmHg 88%
    04:00 +14°C° 0 mm 5 mps 761 mmHg 88%
    05:00 +14°C° 0 mm 5 mps 761 mmHg 87%
    06:00 +15°C° 0 mm 5 mps 761 mmHg 86%
    07:00 +16°C° 0 mm 6 mps 761 mmHg 86%
    08:00 +16°C° 0 mm 5 mps 761 mmHg 86%
    09:00 +17°C° 0 mm 5 mps 761 mmHg 87%
    10:00 +18°C° 0 mm 4 mps 761 mmHg 88%
    11:00 +19°C° 0 mm 4 mps 760 mmHg 81%
    12:00 +20°C° 0 mm 4 mps 760 mmHg 74%
    13:00 +21°C° 0 mm 4 mps 760 mmHg 66%
    14:00 +21°C° 0.1 mm 5 mps 760 mmHg 67%
    15:00 +21°C° 0.1 mm 5 mps 760 mmHg 67%
    16:00 +20°C° 0.1 mm 5 mps 759 mmHg 67%
    17:00 +19°C° 0.1 mm 5 mps 760 mmHg 72%
    18:00 +16°C° 0.1 mm 5 mps 760 mmHg 78%
    19:00 +15°C° 0.1 mm 5 mps 760 mmHg 83%
    20:00 +14°C° 0 mm 5 mps 760 mmHg 83%
    21:00 +13°C° 0 mm 4 mps 761 mmHg 83%
    22:00 +12°C° 0 mm 4 mps 761 mmHg 83%
    23:00 +12°C° 0.1 mm 3 mps 762 mmHg 84%

    27 Abril, Sábado

    Tiempo Temperatura Precipitaciones Viento Presión Humedad
    00:00 +12°C° 0.1 mm 2 mps 762 mmHg 85%
    01:00 +12°C° 0.1 mm 2 mps 762 mmHg 86%
    02:00 +12°C° 0.1 mm 2 mps 763 mmHg 85%
    03:00 +12°C° 0.1 mm 2 mps 763 mmHg 83%
    04:00 +12°C° 0.1 mm 2 mps 764 mmHg 81%
    05:00 +13°C° 0 mm 2 mps 764 mmHg 79%
    06:00 +14°C° 0 mm 2 mps 764 mmHg 77%
    07:00 +15°C° 0 mm 2 mps 765 mmHg 75%
    08:00 +16°C° 0 mm 2 mps 765 mmHg 65%
    09:00 +18°C° 0 mm 2 mps 765 mmHg 56%
    10:00 +20°C° 0 mm 2 mps 765 mmHg 47%
    11:00 +20°C° 0 mm 3 mps 765 mmHg 45%
    12:00 +21°C° 0 mm 3 mps 765 mmHg 43%
    13:00 +21°C° 0 mm 3 mps 765 mmHg 41%
    14:00 +21°C° 0 mm 4 mps 765 mmHg 43%
    15:00 +20°C° 0 mm 4 mps 765 mmHg 44%
    16:00 +20°C° 0 mm 4 mps 765 mmHg 45%
    17:00 +18°C° 0 mm 3 mps 765 mmHg 52%
    18:00 +16°C° 0 mm 2 mps 765 mmHg 59%
    19:00 +14°C° 0 mm 1 mps 765 mmHg 66%
    20:00 +14°C° 0 mm 1 mps 766 mmHg 65%
    21:00 +13°C° 0 mm 1 mps 766 mmHg 64%
    22:00 +13°C° 0 mm 1 mps 767 mmHg 63%
    23:00 +13°C° 0 mm 1 mps 767 mmHg 63%
    Mostrar más